Location: Great Snoring
(52.8667°N, 0.8833°E)
Time: 22:01:25
(UTC+00:00)

USA-17 - Pass Details

Date: 19 May 2025
Orbit: 394 x 1605 km, 63.3° (Epoch: 12 June)

Event Time Altitude Azimuth Distance (km) Brightness Sun altitude
Rises 23:37:32 0° 313° (NW) 2,342 8.8 -17.1°
Reaches altitude 10° 23:39:35 10° 313° (NW) 1,450 7.6 -17.1°
Maximum altitude 23:42:40 90° 232° (SW) 408 4.1 -17.1°
Enters shadow 23:43:33 44° 134° (SE) 574 4.6 -17.1°
